DF5HRN-13 Weather Reports


time (UTC)temp
F
wind
direction
speed
knots
gust
knots
rain 1hr
in
rain 24hr
in
rain mn
in
humidity
%
barometer
mb
20260506044505 53 180 0.0 10.4 0.00 0.00 0.00 47 1018.0
20260506043005 53 158 0.0 10.4 0.00 0.00 0.00 47 1018.0
20260506041505 53 180 0.9 10.4 0.00 0.00 0.00 47 1018.0
20260506040005 53 203 0.0 10.4 0.00 0.00 0.00 47 1018.0
20260506034505 53 135 2.6 10.4 0.00 0.00 0.00 47 1018.0
20260506033005 54 158 3.5 10.4 0.00 0.00 0.00 47 1018.0
20260506031505 54 158 0.0 10.4 0.00 0.00 0.00 47 1017.0
20260506030005 54 203 0.0 10.4 0.00 0.00 0.00 47 1017.0
20260506024505 53 158 0.0 10.4 0.00 0.00 0.00 47 1018.0
20260506023005 54 203 0.0 10.4 0.00 0.00 0.00 47 1018.0
20260506021505 53 158 0.0 10.4 0.00 0.00 0.00 47 1018.0
20260506020005 54 180 0.0 10.4 0.00 0.00 0.00 46 1018.0
20260506014505 54 158 0.0 10.4 0.00 0.00 0.00 46 1018.0
20260506013005 54 158 0.0 10.4 0.00 0.00 0.00 46 1018.0
20260506011505 55 180 0.0 10.4 0.00 0.00 0.00 46 1018.0
20260506010005 55 180 0.0 10.4 0.00 0.00 0.00 46 1018.0
20260506004505 55 158 0.0 10.4 0.00 0.00 0.00 46 1018.0
20260506003005 55 203 0.0 10.4 0.00 0.00 0.00 46 1018.0
20260506001505 56 158 0.9 10.4 0.00 0.00 0.00 46 1018.0
20260506000005 56 180 0.0 10.4 0.00 0.00 0.00 45 1018.0
20260505234505 56 180 0.0 10.4 0.00 0.00 0.00 45 1018.0
20260505233005 57 158 0.0 10.4 0.00 0.00 0.00 45 1018.0
20260505231505 56 180 0.0 10.4 0.00 0.00 0.00 45 1018.0
20260505230005 58 180 0.0 10.4 0.00 0.00 0.00 44 1018.0
20260505224505 58 225 0.0 10.4 0.00 0.00 0.00 44 1018.0
20260505223005 59 203 0.0 10.4 0.00 0.00 0.00 43 1018.0
20260505221505 58 248 0.0 10.4 0.00 0.00 0.00 43 1018.0
20260505220005 59 270 0.9 10.4 0.00 0.00 0.00 43 1017.0
20260505204505 60 248 0.0 10.4 0.00 0.00 0.00 42 1017.0
20260505203005 60 225 0.0 10.4 0.00 0.00 0.00 42 1017.0
20260505201505 61 248 0.0 10.4 0.00 0.00 0.00 41 1016.0
20260505200005 60 293 0.0 10.4 0.00 0.00 0.00 41 1016.0
20260505194505 60 293 0.0 10.4 0.00 0.00 0.00 41 1016.0
20260505193005 61 293 0.0 10.4 0.00 0.00 0.00 41 1016.0
20260505191505 62 203 0.0 10.4 0.00 0.00 0.00 41 1016.0
20260505190005 62 248 0.0 10.4 0.00 0.00 0.00 41 1016.0
20260505184505 62 248 0.0 10.4 0.00 0.00 0.00 41 1016.0
20260505183005 63 248 0.9 10.4 0.00 0.00 0.00 41 1016.0
20260505181505 64 270 2.6 10.4 0.00 0.00 0.00 41 1015.0
20260505180005 65 248 3.5 10.4 0.00 0.00 0.00 41 1015.0
20260505174505 67 203 4.3 8.7 0.00 0.00 0.00 40 1014.0
20260505173006 69 248 0.9 8.7 0.00 0.00 0.00 40 1014.0
20260505171505 70 203 0.0 8.7 0.00 0.00 0.00 40 1014.0
20260505170005 70 158 0.0 8.7 0.00 0.00 0.00 40 1014.0
20260505164505 70 180 0.9 8.7 0.00 0.00 0.00 39 1014.0
20260505163005 70 180 0.0 8.7 0.00 0.00 0.00 40 1015.0
20260505161505 71 158 0.0 8.7 0.00 0.00 0.00 40 1015.0
20260505153005 72 180 0.0 8.7 0.00 0.00 0.00 38 1015.0
20260505151505 72 225 0.9 8.7 0.00 0.00 0.00 37 1015.0
20260505124505 72 180 0.0 8.7 0.00 0.00 0.00 43 1016.0
20260505123005 70 68 0.0 8.7 0.00 0.00 0.00 43 1016.0
20260505121505 72 225 0.0 8.7 0.00 0.00 0.00 43 1017.0
20260505120005 70 180 4.3 8.7 0.00 0.00 0.00 43 1017.0
20260505114505 69 180 0.9 8.7 0.00 0.00 0.00 42 1017.0
20260505113005 68 158 1.7 8.7 0.00 0.00 0.00 42 1017.0
20260505111505 68 135 3.5 8.7 0.00 0.00 0.00 42 1017.0
20260505101505 72 158 0.9 8.7 0.00 0.00 0.00 42 1018.0
20260505100005 71 158 3.5 8.7 0.00 0.00 0.00 42 1018.0
20260505094505 72 158 1.7 8.7 0.00 0.00 0.00 42 1018.0
20260505093005 72 180 2.6 8.7 0.00 0.00 0.00 41 1018.0
20260505091505 70 203 1.7 8.7 0.00 0.00 0.00 41 1018.0
20260505090005 73 135 0.0 8.7 0.00 0.00 0.00 41 1018.0
20260505084505 72 135 0.0 8.7 0.00 0.00 0.00 41 1018.0
20260505083005 72 158 0.0 8.7 0.00 0.00 0.00 41 1018.0
20260505081505 70 158 0.0 8.7 0.00 0.00 0.00 41 1018.0
20260505080005 69 135 0.0 8.7 0.00 0.00 0.00 41 1018.0
20260505074505 68 68 0.0 8.7 0.00 0.00 0.00 41 1018.0
20260505073005 67 23 0.0 8.7 0.00 0.00 0.00 41 1019.0
20260505071505 66 23 0.0 8.7 0.00 0.00 0.00 41 1019.0
20260505070005 65 0 0.0 8.7 0.00 0.00 0.00 41 1019.0
20260505064505 64 0 0.0 8.7 0.00 0.00 0.00 41 1019.0
20260505063005 63 315 0.0 8.7 0.00 0.00 0.00 41 1019.0
20260505061505 62 315 0.0 8.7 0.00 0.00 0.00 41 1019.0
20260505060005 60 315 0.0 8.7 0.00 0.00 0.00 41 1019.0
20260505054505 59 315 0.0 8.7 0.00 0.00 0.00 41 1019.0
20260505053005 58 203 0.0 8.7 0.00 0.00 0.00 41 1019.0
20260505051505 57 203 0.0 8.7 0.00 0.00 0.00 41 1019.0